Back to catalog

BEIDOU 3M23

AliveNavigationMEO
NORAD 44542·PAYLOAD·🇨🇳 China

Launched Sep 22, 2019 from Xichang Satellite Launch Center

Loading…

Next Passes (next 24 hours)

TLE

FreshSource: Space-Track

Epoch: Sep 13, 2026, 07:16 UTC

1 44542U 19061A   26256.30302000  .00000007  00000-0  00000-0 0  9992
2 44542  54.3939 179.7577 0009249  12.2289 347.8030  1.86229339 47431

Track BEIDOU 3M23 in real time with AllMySat

Download on the App Store